Weather Roundup
Issued by NWS Corpus Christi, TX

Home | Current Version | Previous Version | Text Only | Print | Product List | Glossary On
Versions: 1 2 3 4 5 6 7 8 9 10 11 12 13 14 15 16 17 18 19 20 21 22 23 24 25 26 27 28 29 30 31 32 33 34 35 36 37 38 39 40 41 42 43 44 45 46 47 48 49 50
000
ASUS44 KCRP 140810
HRRCRP

SOUTH TEXAS REGIONAL WEATHER ROUNDUP
NATIONAL WEATHER SERVICE CORPUS CHRISTI TX
200 AM CST SUN FEB 14 2016


TXZ229>244-140900-
...CORPUS CHRISTI AREA OBSERVATIONS...

CITY           SKY/WX    TMP DP  RH WIND       PRES   REMARKS
CORPUS CHRISTI PTCLDY    53  51  93 SE8       30.10F
NAS CORPUS CHR CLEAR     64  61  90 S12       30.10F
ROCKPORT       CLEAR     63  58  83 S6        30.10F
KINGSVILLE NAS MOCLDY    59  59 100 SE8       30.09F
ALICE          CLEAR     51  51 100 SE6       30.08F
FALFURRIAS     CLEAR     56  54  94 SE3       30.08F
$$

...VICTORIA AREA OBSERVATIONS...

CITY           SKY/WX    TMP DP  RH WIND       PRES   REMARKS
VICTORIA       PTCLDY    54  54 100 SE7       30.11F
BEEVILLE       FAIR      46  46 100 SE6       30.10F FOG
PLEASANTON     CLEAR     53  51  94 SE3       30.11R
SAN ANTONIO    PTCLDY    56  53  90 S8        30.10F
$$

...LAREDO AREA OBSERVATIONS...

CITY           SKY/WX    TMP DP  RH WIND       PRES   REMARKS
LAREDO         PTCLDY    59  55  87 SE13      30.06F
COTULLA        PTCLDY    59  53  80 SE9       30.07F
DEL RIO        CLEAR     57  49  74 E8        30.04F
MCALLEN        PTCLDY    62  58  86 SE10      30.08F
HEBBRONVILLE   NOT AVBL
$$

...OTHER TEXAS OBSERVATIONS...

CITY           SKY/WX    TMP DP  RH WIND       PRES   REMARKS
BROWNSVILLE    PTCLDY    63  57  81 SE9       30.10F
HOUSTON        CLOUDY    58  54  86 SE9       30.14F
COL. STATION   CLOUDY    59  56  89 S10       30.12F
AUSTIN         CLOUDY    56  55  97 S8        30.09F
WACO           MOCLDY    57  53  86 S20       30.06F
FORT WORTH     PTCLDY    59  53  80 S21G28    30.00F
WICHITA FALLS  CLEAR     55  47  74 S13       29.91F
LUBBOCK        CLEAR     51  40  65 SW16      29.92F
EL PASO        MOCLDY    51  14  22 NE7       30.04R
$$

...MARINE OBSERVATIONS...

STATION/POSITION TIME  SKY/WX   TEMP    WIND        PRES    VSBY  WAVE   SWELL
                                AIR SEA DIR/SP/G                  HT/PER HT/PER
                 (UTC)          (F)     (DEG/KT/KT) (MB)    (MI)  (FT/S) (FT/S)
PORT ARANSAS     0800            64 65  150/  9/ 10 1019.9F
BUOY 90 E PORT A 0750            67 64  150/ 14/ 16 1020.4F         4/ 5   2/ 9
BUOY 45 SE BAFFI 0750            68 69  160/ 21/ 25 1018.9F         4/ 5
BUOY 200 E PT IS 0750                                 N/A           2/ 3
BUOY 15 E GALVES 0750            60 60  110/ 10/ 12 1020.9F         3/ 6   2/ 6
$$



USA.gov is the U.S. government's official web portal to all federal, state and local government web resources and services.